Hourly Data Report for September 25, 2017

All times are specified in Local Standard Time (LST). Add 1 hour to adjust for Daylight Saving Time where and when it is observed.

TORONTO INTL A
ONTARIO

43°40'36.000" N
79°37'50.000" W
173.40 m
6158731
71624
YYZ

Download Data

Hourly Data (September 2017)
Hourly Data Report for September 25, 2017
Temp Definition
°C
Dew Point Temp Definition
°C
Rel Hum Definition
%
Wind Dir Definition
10's deg

Wind Spd Definition
km/h
Visibility Definition
km
Stn Press Definition
kPa
Hmdx Definition


Wind Chill Definition


Weather Definition


TIME
00:00 Legend Double Dagger 24.1 18.2 69 28 4 24.1 99.83 30   LegendNANA
01:00 Legend Double Dagger 23.7 17.9 70 32 9 24.1 99.82 30   Clear
02:00 Legend Double Dagger 22.5 18.2 76 34 8 24.1 99.80 29   LegendNANA
03:00 Legend Double Dagger 21.4 17.7 79 32 9 24.1 99.78 27   LegendNANA
04:00 Legend Double Dagger 20.8 17.4 80 32 10 24.1 99.78 26   Clear
05:00 Legend Double Dagger 20.8 17.2 80 16 4 24.1 99.80 26   LegendNANA
06:00 Legend Double Dagger 21.7 18.0 79 36 2 24.1 99.82 28   LegendNANA
07:00 Legend Double Dagger 22.1 17.9 77 31 4 24.1 99.85 28   Mostly Cloudy
08:00 Legend Double Dagger 24.9 19.2 70 3 4 24.1 99.86 32   LegendNANA
09:00 Legend Double Dagger 27.5 19.3 60 15 8 24.1 99.88 35   LegendNANA
10:00 Legend Double Dagger 29.3 18.2 51 18 10 24.1 99.86 35   Mostly Cloudy
11:00 Legend Double Dagger 29.5 18.1 50 15 12 24.1 99.85 36   LegendNANA
12:00 Legend Double Dagger 30.2 18.7 49 17 12 24.1 99.82 37   LegendNANA
13:00 Legend Double Dagger 31.0 18.5 47 15 14 24.1 99.76 37   Mainly Clear
14:00 Legend Double Dagger 31.3 18.5 46 16 11 24.1 99.70 38   LegendNANA
15:00 Legend Double Dagger 30.6 18.2 47 17 11 24.1 99.64 37   LegendNANA
16:00 Legend Double Dagger 30.4 18.4 48 14 15 24.1 99.59 37   Mostly Cloudy
17:00 Legend Double Dagger 29.3 18.6 52 14 8 24.1 99.57 36   LegendNANA
18:00 Legend Double Dagger 27.6 18.4 56 14 9 24.1 99.56 34   LegendNANA
19:00 Legend Double Dagger 26.3 18.0 60 14 9 24.1 99.54 32   Mostly Cloudy
20:00 Legend Double Dagger 24.8 18.3 67 16 9 24.1 99.57 31   LegendNANA
21:00 Legend Double Dagger 24.0 19.4 75 17 5 24.1 99.57 31   LegendNANA
22:00 Legend Double Dagger 23.6 19.6 78 0 1 24.1 99.56 31   Mainly Clear
23:00 Legend Double Dagger 23.3 18.9 76 4 4 24.1 99.55 30   LegendNANA

Notes on Data Quality.

Legend

  • E = Estimated
  • M = Missing
  • NA = Not Available
  • ‡ = Partner data that is not subject to review by the National Climate Archives
Date modified: